Change the Weather History Date:

Tuesday, November 30, 2010

  Actual Average Record
Temperature  
Mean Temperature 59 °F 56 °F  
Max Temperature 75 °F 66 °F 80 °F (1967)
Min Temperature 42 °F 45 °F 24 °F (1976)
Degree Days  
Heating Degree Days 6 10  
Month to date heating degree days 175 202  
Since 1 July heating degree days 199 258  
Cooling Degree Days 0 1  
Month to date cooling degree days 44 41  
Year to date cooling degree days 2799 2503  
Growing Degree Days 8 (Base 50)    
Moisture  
Dew Point 56 °F    
Average Humidity 83    
Maximum Humidity 96    
Minimum Humidity 70    
Precipitation  
Precipitation 1.06 in 0.17 in 2.77 in (1930)
Month to date precipitation 5.92 5.13  
Year to date precipitation 58.48 61.09  
Snow  
Snow 0.00 in 0.00 in 0.00 in (2001)
Month to date snowfall 0.0 0.0  
Since 1 July snowfall 0.0 0.0  
Snow Depth 0.00 in    
Sea Level Pressure  
Sea Level Pressure 30.00 in    
Wind  
Wind Speed 12 mph (WNW)    
Max Wind Speed 25 mph    
Max Gust Speed 35 mph    
Visibility 7 miles    
Events Rain    
T = Trace of Precipitation, MM = Missing Value Source: NWS Daily Summary

Daily Weather History Graph

Daily Weather History Graph

Search for Another Location

Airport or City:

Trip Planner

Search our weather history database for the weather conditions in past years. The results will help you decide how hot, cold, wet, or windy it might be!

Date:

Astronomy

Nov. 30, 2010 Rise Set
Actual Time 6:31 AM CST 4:51 PM CST
Civil Twilight 6:05 AM CST 5:17 PM CST
Nautical Twilight 5:36 AM CST 5:47 PM CST
Astronomical Twilight 5:06 AM CST 6:16 PM CST
Moon 1:06 AM CST (11/30) 1:05 PM CST (11/30)
Length of Visible Light 11h 11m
Length of Day
10h 19m
Waning Crescent, 29% of the Moon is Illuminated
Nov 30
Waning Crescent
Dec 5
New
Dec 13
First Quarter
Dec 21
Full
Dec 27
Last Quarter

Hourly Weather History & Observations

Time (CST) Temp. Windchill Dew Point Humidity Pressure Visibility Wind Dir Wind Speed Gust Speed Precip Events Conditions
12:04 AM 73.4 °F - 69.8 °F 88% 29.94 in 10.0 mi South 17.3 mph 25.3 mph N/A   Overcast
12:39 AM 73.4 °F - 69.8 °F 88% 29.93 in 10.0 mi South 12.7 mph 27.6 mph N/A   Overcast
12:56 AM 73.9 °F - 70.0 °F 87% 29.92 in 10.0 mi South 18.4 mph 26.5 mph N/A   Overcast
1:56 AM 73.9 °F - 70.0 °F 87% 29.91 in 10.0 mi South 19.6 mph 27.6 mph N/A   Overcast
2:56 AM 73.9 °F - 70.0 °F 87% 29.91 in 10.0 mi South 11.5 mph 27.6 mph N/A   Overcast
3:56 AM 73.0 °F - 69.1 °F 87% 29.91 in 10.0 mi South 15.0 mph 23.0 mph N/A   Overcast
4:56 AM 73.0 °F - 69.1 °F 87% 29.88 in 10.0 mi South 18.4 mph 27.6 mph N/A   Overcast
5:48 AM 73.4 °F - 69.8 °F 88% 29.90 in 10.0 mi South 18.4 mph 25.3 mph N/A   Mostly Cloudy
5:56 AM 73.0 °F - 69.1 °F 87% 29.90 in 10.0 mi South 15.0 mph 24.2 mph N/A   Mostly Cloudy
6:06 AM 73.4 °F - 69.8 °F 88% 29.91 in 10.0 mi South 15.0 mph 24.2 mph N/A   Mostly Cloudy
6:56 AM 73.0 °F - 69.1 °F 87% 29.91 in 10.0 mi South 15.0 mph 21.9 mph 0.00 in   Overcast
7:23 AM 73.4 °F - 69.8 °F 88% 29.91 in 10.0 mi South 13.8 mph 26.5 mph N/A   Overcast
7:56 AM 73.0 °F - 69.1 °F 87% 29.91 in 10.0 mi South 13.8 mph 23.0 mph N/A   Overcast
8:19 AM 73.4 °F - 69.8 °F 88% 29.92 in 10.0 mi South 16.1 mph 24.2 mph N/A   Overcast
8:35 AM 73.4 °F - 69.8 °F 88% 29.92 in 5.0 mi South 15.0 mph 25.3 mph 0.00 in Rain Light Rain
8:49 AM 73.4 °F - 69.8 °F 88% 29.92 in 8.0 mi South 15.0 mph 23.0 mph 0.00 in   Overcast
8:56 AM 73.9 °F - 70.0 °F 87% 29.92 in 10.0 mi South 15.0 mph 23.0 mph 0.00 in   Overcast
9:33 AM 68.0 °F - 62.6 °F 83% 29.96 in 7.0 mi NW 18.4 mph 34.5 mph N/A   Overcast
9:56 AM 57.9 °F - 55.9 °F 93% 29.97 in 3.0 mi NNW 21.9 mph 29.9 mph 0.03 in Rain Heavy Rain
10:01 AM 57.2 °F - 55.4 °F 94% 29.98 in 3.0 mi NW 17.3 mph 31.1 mph 0.02 in Rain Rain
10:05 AM 57.2 °F - 55.4 °F 94% 29.99 in 2.0 mi NW 12.7 mph 31.1 mph 0.03 in Rain Rain
10:10 AM 57.2 °F - 55.4 °F 94% 29.98 in 1.0 mi NNW 17.3 mph 24.2 mph 0.10 in Rain Heavy Rain
10:22 AM 57.2 °F - 55.4 °F 94% 29.98 in 2.5 mi NW 16.1 mph 23.0 mph 0.18 in Rain Heavy Rain
10:31 AM 57.2 °F - 55.4 °F 94% 29.97 in 3.0 mi NW 13.8 mph 19.6 mph N/A Rain Rain
10:41 AM 57.2 °F - 55.4 °F 94% 29.99 in 2.0 mi NNW 16.1 mph 25.3 mph 0.24 in Rain Heavy Rain
10:47 AM 55.4 °F - 53.6 °F 94% 29.99 in 1.5 mi NNW 11.5 mph 25.3 mph 0.27 in Rain Heavy Rain
10:56 AM 55.9 °F - 54.0 °F 93% 29.98 in 2.5 mi NW 13.8 mph - 0.33 in Rain Heavy Rain
11:08 AM 53.6 °F - 51.8 °F 94% 29.98 in 1.2 mi NW 21.9 mph 31.1 mph 0.11 in Rain Heavy Rain
11:16 AM 53.6 °F - 51.8 °F 94% 29.99 in 5.0 mi NNW 17.3 mph 31.1 mph 0.13 in Rain Light Rain
11:56 AM 52.0 °F - 50.0 °F 93% 29.99 in 6.0 mi NNW 15.0 mph 24.2 mph 0.18 in Rain Rain
12:08 PM 51.8 °F - 48.2 °F 88% 29.99 in 8.0 mi NNW 11.5 mph 25.3 mph 0.01 in Rain Light Rain
12:20 PM 51.8 °F - 50.0 °F 94% 29.99 in 5.0 mi NNW 15.0 mph 21.9 mph 0.03 in Rain Rain
12:56 PM 51.1 °F - 48.9 °F 92% 29.99 in 4.0 mi NW 11.5 mph 21.9 mph 0.09 in Rain Rain
1:56 PM 50.0 °F - 48.0 °F 93% 30.00 in 5.0 mi NNW 10.4 mph - 0.10 in Rain Rain
2:06 PM 50.0 °F - 48.2 °F 94% 30.01 in 2.0 mi NW 12.7 mph - 0.05 in Rain Heavy Rain
2:30 PM 50.0 °F - 48.2 °F 94% 30.01 in 4.0 mi NNW 8.1 mph - 0.18 in Rain Rain
2:56 PM 50.0 °F - 48.0 °F 93% 30.01 in 4.0 mi NW 5.8 mph - 0.26 in Rain Rain
3:56 PM 50.0 °F - 48.9 °F 96% 30.02 in 10.0 mi WNW 4.6 mph - 0.07 in Rain Light Rain
4:56 PM 50.0 °F - 46.0 °F 86% 30.03 in 10.0 mi NW 13.8 mph 21.9 mph 0.00 in   Overcast
5:38 PM 48.2 °F - 46.4 °F 93% 30.06 in 10.0 mi NW 9.2 mph 17.3 mph N/A   Overcast
6:56 PM 48.9 °F - 46.0 °F 90% 30.12 in 10.0 mi NW 9.2 mph - N/A   Mostly Cloudy
7:05 PM 48.2 °F - 46.4 °F 93% 30.13 in 10.0 mi NW 5.8 mph - N/A   Overcast
7:56 PM 46.0 °F 40.2 °F 39.9 °F 79% 30.17 in 10.0 mi NW 12.7 mph 26.5 mph N/A   Overcast
8:10 PM 44.6 °F 37.8 °F 39.2 °F 81% 30.18 in 10.0 mi NW 15.0 mph 23.0 mph N/A   Mostly Cloudy
8:56 PM 44.1 °F 40.1 °F 39.0 °F 82% 30.22 in 10.0 mi WNW 6.9 mph - N/A   Mostly Cloudy
9:56 PM 45.0 °F 40.6 °F 37.9 °F 76% 30.24 in 10.0 mi NW 8.1 mph - N/A   Overcast
10:56 PM 44.1 °F 39.0 °F 36.0 °F 73% 30.25 in 10.0 mi NW 9.2 mph - N/A   Mostly Cloudy
11:56 PM 42.1 °F 36.6 °F 34.0 °F 73% 30.25 in 10.0 mi NW 9.2 mph - N/A   Scattered Clouds